Terug naar catalogus

CZ-3A DEB

ActiefHEO
NORAD 35557·DEBRIS·🇨🇳 China

Gelanceerd Feb 2, 2007 vanaf Xichang Satellite Launch Center

Loading…

Volgende Passages (komende 24 uur)

TLE

VersSource: Space-Track

Epoch: Sep 9, 2026, 22:46 UTC

1 35557U 07003R   26252.94916115  .00001575  00000-0  24299-2 0  9994
2 35557  23.3322  36.4240 6348947  47.8589 350.9406  3.41915392 25420

Volg CZ-3A DEB in realtime met AllMySat

Download on the App Store